一网星座-0019星 (ONEWEB-0019 )

导读

ONEWEB-0019是英国OneWeb公司低轨卫星星座中的一员,于2020年3月21日发射升空,属于OneWeb星座一期组网卫星。卫星单星重约147.5公斤,设计寿命5年,搭载Ku/Ka波段天线,具备约7.5Gbps通信能力,最终进入1200公里近地轨道工作。该卫星旨在为全球尤其是偏远地区提供高速低延迟的互联网接入服务,帮助缩小数字鸿沟,支持航空、海运、应急响应等多场景联网需求,是OneWeb实现全球卫星互联网覆盖的重要组成部分。

基本信息
目录编号:
45449
目录名称:
ONEWEB-0019
国际标识:
2020-020AB
轨道中心:
EARTH
卫星名称:
一网星座-0019星
卫星全名:
一网星座-0019星 (ONEWEB-0019 )
卫星状态:
在轨 (已飞行2319 天)
发射日期:
2020-03-21 UTC
国别 :
英国 (GB)
星等 :
--
轨道信息
数据来源 国际轨道数据 AOE轨道数据
星历时间 2026-07-27T18:06:21+0800
12小时前
查看轨道信息
2026-07-26T18:00:00+0800
1天前
查看轨道信息
半长轴 7595.812km 7595.801km
偏心率 0.0002006 0.000189
轨道倾角 87.890° 87.890°
近地点辐角 94.757° 94.803°
升交点赤经 13.045° 13.245°
平近点角 265.379° 206.081°
近地点 1216.151km 1216.228km
远地点 1219.199km 1219.1km
周期 109.805分钟 109.804分钟
每日圈数 13.114191 13.114218
详细信息
平衡模式:
三轴稳定
覆盖范围:
全球
运营商:
一网卫星公司
运营商所在国:
英国
制造商(研发单位):
一网卫星公司
制造商所在国:
英国
使用方式:
暂无
卫星简介
OneWeb卫星网络由648颗重约125公斤的微型卫星组成,运行在1200公里的轨道上。 每颗卫星都能够提供至少每秒8千兆位的吞吐量,以使用其高吞吐量的Ku频段有效载荷为家庭和移动平台提供互联网接入。该卫星仍在工作。
2D轨道图
3D轨道图
轨道高度分析图
轨道倾角分析图
轨道综合分析图
查看轨道综合分析图